SCP
0 -0 -0 0 0 0 0 0 0 -0 0 0 -0 0 0 -0 0 -0 0 0 0 0 0 0 -0 0 1 1 1 0 0 0 1 1 1 1 1 1 1 1 1 1 1 0
0 0 0 0 0 0 0 0 0 0 -0 0 -0 -0 -0 -0 0 0 0 0 0 -0 0 0 1 2 1 1 1 1 0 1 1 1 2 1 1 1 1 1 1 1 1 0
0 0 0 0 0 0 0 -0 0 0 -0 0 -0 -0 -0 -0 0 0 0 0 0 0 0 0 1 3 2 1 2 2 1 1 1 1 1 1 1 1 1 1 1 1 0 0
0 0 0 0 0 0 -0 0 -0 -0 0 0 0 0 -0 0 -0 -0 0 0 0 1 1 0 0 2 2 2 2 2 1 1 1 1 1 1 1 1 1 1 0 0 0 0
0 0 0 0 0 0 0 0 0 0 0 0 0 0 1 1 0 0 0 1 1 2 2 2 1 1 2 2 2 2 2 1 1 1 1 1 1 1 1 1 0 0 0 0
0 0 0 0 0 0 0 0 0 0 0 0 0 0 0 0 0 0 0 0 1 2 2 1 0 1 2 2 2 2 3 2 2 2 1 1 1 1 1 0 0 0 0 0
0 0 0 0 0 0 0 0 0 0 0 0 0 0 0 0 0 0 0 0 0 1 2 1 1 1 2 2 2 2 3 3 2 2 1 1 1 1 1 0 0 0 0 0
0 0 0 0 0 0 0 0 0 0 0 0 0 0 0 0 0 0 0 0 0 0 0 1 0 0 -0 1 1 3 3 4 3 2 1 1 1 1 0 0 0 0 0 0
0 0 0 0 0 0 0 0 0 0 0 0 0 0 0 0 0 0 0 0 0 0 0 0 0 0 0 -0 -0 2 3 3 3 2 2 1 1 1 1 0 0 0 0 0
0 0 0 0 0 0 0 0 0 0 0 0 0 0 0 0 0 0 0 0 0 0 0 0 0 0 0 0 1 1 2 2 3 3 2 1 1 1 1 1 0 0 0 0
0 0 0 0 0 0 0 0 0 0 0 0 0 0 0 0 0 0 0 0 0 0 0 0 0 0 0 0 0 0 1 2 2 2 2 2 1 1 1 1 1 1 0 0
0 0 0 0 0 0 0 0 0 0 0 0 0 0 0 0 0 0 0 0 0 0 0 0 0 0 0 0 0 0 0 1 1 0 0 0 0 1 1 0 0 0 0 0
0 0 0 0 0 0 0 0 0 0 0 0 0 0 0 0 0 0 0 0 0 0 0 0 0 0 0 0 0 0 0 0 -0 -0 0 0 0 -0 0 0 -0 -0 0 0
0 0 0 0 0 0 0 0 0 0 0 0 0 0 0 0 -0 0 0 0 0 0 0 0 0 0 -0 -0 0 0 0 0 0 0 0 0 0 0 0 0 0 0 0 -0
0 0 0 0 0 0 0 0 0 0 0 0 0 0 0 0 0 0 0 0 0 0 0 0 0 0 0 0 0 0 0 0 0 0 0 0 0 0 0 0 0 0 0 0
0 0 0 0 0 0 0 0 0 0 0 0 0 0 0 0 0 0 0 0 0 0 0 0 0 0 0 0 0 0 0 0 0 0 0 0 0 -0 0 -0 0 -0 0 0
0 0 0 0 0 0 0 0 0 0 0 0 0 0 0 0 0 0 0 0 0 0 0 0 0 0 0 0 0 0 0 0 0 0 0 1 0 0 0 -0 0 0 0 -0
0 0 0 0 0 0 0 0 0 0 0 0 0 0 0 0 0 0 0 0 0 0 0 0 0 0 0 0 0 0 0 0 0 0 0 0 0 0 0 0 0 0 0 -0
0 0 0 -0 -0 -0 -0 -0 -0 -0 -0 0 0 0 0 0 0 0 0 0 0 0 0 0 0 0 0 0 0 0 0 0 0 0 0 0 0 0 0 0 0 0 0 0
0 0 0 -0 -0 -0 -0 -0 -0 -0 -0 -0 -0 -0 0 0 0 0 0 0 0 0 0 0 0 0 0 0 0 0 0 0 0 0 0 0 0 0 0 0 0 0 0 0
0 0 0 -0 -0 -0 -0 -0 -0 -0 -0 -0 -0 -0 -0 -0 0 0 0 0 0 0 -0 -0 0 0 0 0 0 0 0 0 0 0 0 0 0 0 0 0 0 0 0 0
0 0 0 0 0 0 -0 -0 -0 -0 -0 -0 -0 -0 -0 -0 -0 0 0 0 0 0 0 0 0 0 0 0 0 0 0 0 0 0 0 0 0 0 0 0 0 0 0 0
0 0 0 0 0 0 -0 -0 -0 -0 -0 -0 -0 -0 -0 -0 -0 -0 0 0 0 0 0 0 0 0 0 0 0 0 0 0 0 0 0 0 0 0 0 0 0 0 0 0
0 0 0 0 0 0 -0 -0 -0 -0 -0 -0 -0 -0 -0 -0 -0 -0 -0 0 0 0 0 0 0 0 0 0 0 0 0 0 0 0 0 0 0 0 0 0 0 0 0 0
0 0 0 0 0 0 0 -0 -0 -0 -0 -0 -0 -0 -0 -0 -0 -0 -0 0 0 0 0 0 0 0 0 0 0 0 0 0 0 0 0 0 0 0 0 0 0 0 0 0
0 0 -0 -0 -0 -0 -0 -0 -0 0 0 -0 -0 -0 -0 -0 -0 -0 -0 -0 0 0 0 0 0 0 0 0 0 0 0 0 0 0 0 0 0 0 0 0 0 0 0 0
0 0 -0 -0 -0 0 0 0 0 0 0 0 -0 -0 -0 -0 -0 -0 -0 -0 -0 0 0 0 0 0 0 0 0 0 0 0 0 0 0 0 0 0 0 0 0 0 0 0
Wind_Speed_500mb
15 10 9 9 14 14 14 15 13 14 30 35 30 17 35 49 21 46 16 25 32 26 32 41 49 60 66 71 72 71 69 66 60 54 50 45 45 47 47 42 41 40 37 36
10 1 7 7 15 12 13 12 4 22 17 6 38 10 29 18 25 38 31 22 11 15 41 41 51 54 63 71 72 73 72 71 61 58 59 56 52 50 45 44 45 42 44 40
11 9 9 11 14 24 23 40 10 5 15 23 7 15 14 33 41 42 41 36 31 29 19 24 47 53 61 66 63 77 76 73 66 61 64 63 52 53 50 49 45 50 49 47
8 8 9 10 12 46 51 34 33 29 23 23 38 38 30 37 39 44 42 43 32 26 21 23 34 35 53 59 64 67 77 79 70 66 67 60 53 56 49 49 51 54 45 44
11 9 10 4 13 8 38 27 31 34 35 34 49 65 53 42 41 41 41 42 41 24 25 28 22 12 29 51 52 53 63 72 73 74 71 62 60 56 56 45 44 47 40 45
6 12 9 8 8 12 16 16 28 41 40 42 28 19 9 37 38 37 36 39 38 35 18 23 15 21 25 37 46 47 46 61 70 71 68 65 60 56 48 41 34 40 44 43
8 9 3 8 33 8 13 12 20 54 46 45 20 21 31 36 41 41 42 44 32 31 32 25 10 19 28 36 40 41 45 51 59 62 62 59 55 49 42 38 37 42 44 40
8 10 2 40 12 15 14 25 50 55 49 47 45 44 44 43 40 41 47 50 48 42 33 24 20 17 32 31 32 42 49 53 59 56 57 56 49 44 40 42 41 43 46 45
9 10 4 56 59 57 54 51 45 45 36 33 36 38 37 42 45 39 47 50 49 47 45 36 31 35 28 41 47 44 47 52 55 53 53 51 47 46 46 44 43 47 50 52
13 18 34 47 61 58 52 47 39 31 28 33 35 36 38 39 40 39 37 45 41 49 47 49 50 49 46 36 37 36 48 49 51 52 55 54 48 47 47 47 48 51 53 53
10 9 42 62 56 54 50 42 37 32 33 34 32 34 37 39 43 44 42 42 40 39 38 42 46 50 56 53 42 36 42 49 52 55 56 56 57 55 53 48 47 52 53 53
7 24 42 37 47 40 40 39 36 34 29 27 32 38 38 35 34 37 40 41 44 46 47 45 46 47 46 51 55 57 53 37 42 39 27 43 63 58 51 43 45 45 50 54
36 50 47 30 35 35 39 42 39 38 38 41 39 44 46 50 48 48 46 49 51 51 49 55 56 54 49 46 51 54 60 56 45 39 33 39 41 97 12 3 30 40 43 53
33 12 46 44 34 33 31 33 34 34 37 43 47 48 51 56 62 63 64 64 63 64 62 57 55 56 60 55 48 46 46 50 44 32 33 29 45 80 67 11 40 43 39 40
41 39 33 31 34 36 35 41 43 42 42 44 48 52 57 63 68 72 72 73 74 74 73 67 57 55 51 56 57 46 37 40 42 33 27 20 41 16 48 73 63 51 56 43
29 32 33 38 36 43 45 52 50 51 51 51 53 55 57 59 60 61 63 66 70 74 72 73 72 55 46 53 53 54 37 30 35 32 30 16 25 45 43 55 42 33 38 32
25 31 30 35 42 40 48 50 48 47 47 52 55 56 57 58 58 57 57 60 64 68 68 67 66 62 53 37 47 50 47 36 22 31 33 25 13 58 56 51 55 50 36 37
31 25 23 26 39 50 55 56 57 54 53 54 55 57 59 60 61 63 64 63 67 72 70 61 58 52 44 45 40 37 40 37 29 30 40 43 33 25 27 48 59 71 65 62
16 15 20 24 34 42 49 54 58 57 55 54 55 56 56 56 56 57 61 63 62 68 65 56 51 48 44 49 44 55 45 38 33 31 30 37 45 43 39 36 43 54 66 67
18 12 15 22 29 37 50 54 58 64 64 59 64 66 63 58 55 59 63 59 52 58 55 54 51 48 45 44 38 36 42 46 36 35 39 36 35 49 55 51 46 43 42 53
17 9 10 15 21 31 42 52 57 60 65 70 71 71 71 63 57 51 53 62 58 60 61 55 48 48 41 39 39 38 41 39 38 40 30 32 34 42 43 50 46 46 47 48
10 6 4 7 18 26 32 44 57 60 61 65 71 76 70 74 67 62 50 52 62 62 60 52 52 48 45 40 39 42 44 50 50 51 49 45 41 32 37 36 33 32 33 37
8 7 3 4 12 22 30 42 50 55 67 63 63 70 72 71 70 71 73 60 59 62 59 48 44 44 49 50 47 46 46 45 49 56 53 49 49 48 39 35 41 43 44 40
10 12 4 5 9 18 29 36 45 52 55 69 60 61 67 70 83 83 73 63 58 58 51 46 43 44 44 35 31 32 31 33 40 40 42 44 41 43 49 48 40 44 50 52
13 9 1 2 8 17 22 25 33 45 54 61 75 76 66 60 68 82 85 80 70 64 62 54 49 45 40 35 32 24 24 26 28 32 35 38 39 38 42 45 55 40 34 32
11 12 6 10 15 18 19 26 25 36 44 52 55 72 75 74 69 64 70 81 86 81 74 71 67 58 51 44 36 30 27 27 32 35 37 44 44 38 31 30 32 34 40 39
9 13 9 9 8 15 18 25 29 28 33 42 48 55 64 70 73 75 76 74 74 76 82 84 82 79 76 70 59 47 38 34 34 36 34 35 36 35 41 29 28 27 29 30
Wind_Direction_500mb
219 192 171 254 245 203 192 188 163 206 175 210 212 201 188 229 277 325 139 183 199 217 230 230 232 230 236 235 232 232 234 232 239 241 239 239 236 241 249 249 246 247 246 248
251 98 181 258 332 298 342 143 24 149 216 146 213 225 218 290 320 309 45 54 18 262 237 243 242 241 237 238 234 232 233 234 238 241 242 239 238 239 249 254 246 248 244 246
235 59 87 24 10 80 72 46 66 132 241 146 152 113 104 88 72 48 41 46 35 22 4 272 258 253 247 244 245 234 233 235 239 242 245 243 239 241 246 255 256 248 247 245
182 71 74 276 62 86 72 39 28 22 41 108 135 133 93 54 47 47 35 30 28 19 355 305 293 267 249 248 246 245 236 231 237 240 241 242 242 241 246 253 255 253 251 249
134 126 142 330 12 40 93 37 22 27 35 100 98 68 46 40 38 35 25 23 23 6 10 7 347 288 237 243 245 248 244 237 236 238 240 240 239 242 244 255 251 259 252 251
97 118 146 251 287 272 89 46 6 48 31 31 66 64 323 33 30 23 16 14 15 15 6 3 325 293 268 252 245 249 256 245 237 239 242 239 241 248 253 261 255 250 251 243
94 101 63 313 312 17 72 181 80 61 54 50 55 58 44 35 32 22 11 11 9 10 8 352 1 293 274 259 258 266 264 261 249 244 243 242 250 252 252 254 248 247 240 233
82 73 351 325 358 84 139 82 83 70 55 47 38 33 33 28 15 7 3 4 11 7 358 355 333 279 256 273 293 285 272 267 259 250 243 240 246 245 241 244 246 239 233 229
82 127 309 75 96 90 82 72 61 68 51 47 33 21 13 11 12 7 1 356 355 354 352 352 347 346 310 271 278 293 287 274 270 260 255 251 250 244 237 242 241 235 234 234
80 33 53 57 75 74 64 62 59 55 41 33 19 8 2 360 358 5 359 355 350 349 344 342 352 354 348 330 294 283 293 279 275 268 261 258 257 249 243 243 240 235 236 233
96 59 65 44 52 59 59 55 50 41 28 24 12 4 357 350 350 347 338 335 336 338 335 326 341 353 352 344 329 301 277 284 281 274 267 265 258 250 247 249 249 247 244 239
110 64 88 56 50 50 48 35 27 21 11 11 3 358 351 346 338 333 334 328 325 323 321 320 325 342 357 354 346 347 338 291 280 279 299 337 286 262 260 261 266 269 267 258
82 75 70 61 45 25 21 10 357 351 351 346 333 333 329 328 322 317 314 315 318 322 320 320 316 320 331 339 338 347 350 354 344 322 301 300 23 355 287 7 318 269 263 264
57 67 46 40 42 25 21 9 355 342 339 339 335 330 329 324 317 312 311 311 306 307 311 315 311 314 318 323 332 336 342 348 351 342 333 330 263 313 292 335 326 309 288 283
73 72 69 59 42 31 17 3 353 347 341 338 331 328 323 319 316 314 311 310 309 304 301 301 309 307 309 314 315 326 342 338 337 346 351 272 230 236 233 260 264 281 270 268
79 67 60 52 37 20 11 0 357 348 342 338 330 326 326 323 318 318 316 312 311 308 306 300 296 301 313 306 311 304 314 336 321 330 347 330 224 201 216 224 233 240 238 247
74 70 61 47 32 22 17 14 10 359 352 350 346 342 341 339 338 339 337 337 329 317 307 304 300 298 294 309 310 307 308 309 301 304 322 323 277 234 244 225 227 226 243 252
105 97 77 45 34 29 26 26 21 13 3 352 345 340 335 335 335 332 332 329 327 327 325 309 310 306 298 289 293 308 317 301 305 280 288 299 302 301 250 248 248 252 248 242
91 71 37 30 25 24 24 23 20 16 9 3 354 346 335 329 327 328 326 323 328 333 340 333 323 318 311 289 301 279 293 308 299 293 302 294 288 287 285 277 273 262 260 262
101 66 22 23 15 20 21 19 16 19 18 13 5 358 350 341 333 324 324 319 317 324 331 331 324 318 315 311 294 308 291 285 300 284 277 290 294 285 281 282 286 283 274 263
94 50 23 15 20 21 22 22 20 22 23 25 19 8 2 354 352 347 345 340 330 321 316 314 319 323 324 326 318 304 298 292 290 285 287 285 285 286 295 279 281 281 283 282
96 23 357 355 18 19 23 21 22 20 17 18 20 15 4 7 2 357 350 340 339 338 329 332 328 318 306 300 293 292 291 288 287 284 284 288 282 290 286 295 288 294 305 292
50 23 298 357 18 22 24 19 18 20 23 20 21 18 14 8 7 358 353 350 346 342 338 332 333 334 317 298 292 291 286 292 292 283 282 282 280 280 281 280 286 286 289 294
50 31 47 359 346 2 14 11 20 22 22 26 25 22 20 12 18 18 8 1 360 355 349 343 329 327 336 339 321 306 302 298 305 304 296 292 288 280 277 271 280 282 288 291
56 33 2 272 348 14 5 6 20 23 28 25 28 27 24 24 23 23 22 17 14 11 9 2 352 345 347 343 343 335 324 314 297 297 294 288 291 286 278 282 267 282 286 285
53 39 55 39 34 35 13 20 6 10 18 24 21 24 25 26 27 26 25 28 29 27 26 25 20 11 4 357 346 338 330 319 308 304 291 278 278 288 291 263 276 274 277 280
59 50 46 40 42 27 13 3 348 342 359 17 17 19 21 23 26 29 33 32 30 28 29 31 35 35 33 27 16 3 352 332 316 319 308 304 304 295 277 268 260 267 268 276
Wind_Speed_850mb
15 10 9 9 14 14 14 15 13 14 30 35 30 17 35 49 21 46 16 25 32 26 32 41 49 60 66 71 72 71 69 66 60 54 50 45 45 47 47 42 41 40 37 36
10 1 7 7 15 12 13 12 4 22 17 6 38 10 29 18 25 38 31 22 11 15 41 41 51 54 63 71 72 73 72 71 61 58 59 56 52 50 45 44 45 42 44 40
11 9 9 11 14 24 23 40 10 5 15 23 7 15 14 33 41 42 41 36 31 29 19 24 47 53 61 66 63 77 76 73 66 61 64 63 52 53 50 49 45 50 49 47
8 8 9 10 12 46 51 34 33 29 23 23 38 38 30 37 39 44 42 43 32 26 21 23 34 35 53 59 64 67 77 79 70 66 67 60 53 56 49 49 51 54 45 44
11 9 10 4 13 8 38 27 31 34 35 34 49 65 53 42 41 41 41 42 41 24 25 28 22 12 29 51 52 53 63 72 73 74 71 62 60 56 56 45 44 47 40 45
6 12 9 8 8 12 16 16 28 41 40 42 28 19 9 37 38 37 36 39 38 35 18 23 15 21 25 37 46 47 46 61 70 71 68 65 60 56 48 41 34 40 44 43
8 9 3 8 33 8 13 12 20 54 46 45 20 21 31 36 41 41 42 44 32 31 32 25 10 19 28 36 40 41 45 51 59 62 62 59 55 49 42 38 37 42 44 40
8 10 2 40 12 15 14 25 50 55 49 47 45 44 44 43 40 41 47 50 48 42 33 24 20 17 32 31 32 42 49 53 59 56 57 56 49 44 40 42 41 43 46 45
9 10 4 56 59 57 54 51 45 45 36 33 36 38 37 42 45 39 47 50 49 47 45 36 31 35 28 41 47 44 47 52 55 53 53 51 47 46 46 44 43 47 50 52
13 18 34 47 61 58 52 47 39 31 28 33 35 36 38 39 40 39 37 45 41 49 47 49 50 49 46 36 37 36 48 49 51 52 55 54 48 47 47 47 48 51 53 53
10 9 42 62 56 54 50 42 37 32 33 34 32 34 37 39 43 44 42 42 40 39 38 42 46 50 56 53 42 36 42 49 52 55 56 56 57 55 53 48 47 52 53 53
7 24 42 37 47 40 40 39 36 34 29 27 32 38 38 35 34 37 40 41 44 46 47 45 46 47 46 51 55 57 53 37 42 39 27 43 63 58 51 43 45 45 50 54
36 50 47 30 35 35 39 42 39 38 38 41 39 44 46 50 48 48 46 49 51 51 49 55 56 54 49 46 51 54 60 56 45 39 33 39 41 97 12 3 30 40 43 53
33 12 46 44 34 33 31 33 34 34 37 43 47 48 51 56 62 63 64 64 63 64 62 57 55 56 60 55 48 46 46 50 44 32 33 29 45 80 67 11 40 43 39 40
41 39 33 31 34 36 35 41 43 42 42 44 48 52 57 63 68 72 72 73 74 74 73 67 57 55 51 56 57 46 37 40 42 33 27 20 41 16 48 73 63 51 56 43
29 32 33 38 36 43 45 52 50 51 51 51 53 55 57 59 60 61 63 66 70 74 72 73 72 55 46 53 53 54 37 30 35 32 30 16 25 45 43 55 42 33 38 32
25 31 30 35 42 40 48 50 48 47 47 52 55 56 57 58 58 57 57 60 64 68 68 67 66 62 53 37 47 50 47 36 22 31 33 25 13 58 56 51 55 50 36 37
31 25 23 26 39 50 55 56 57 54 53 54 55 57 59 60 61 63 64 63 67 72 70 61 58 52 44 45 40 37 40 37 29 30 40 43 33 25 27 48 59 71 65 62
16 15 20 24 34 42 49 54 58 57 55 54 55 56 56 56 56 57 61 63 62 68 65 56 51 48 44 49 44 55 45 38 33 31 30 37 45 43 39 36 43 54 66 67
18 12 15 22 29 37 50 54 58 64 64 59 64 66 63 58 55 59 63 59 52 58 55 54 51 48 45 44 38 36 42 46 36 35 39 36 35 49 55 51 46 43 42 53
17 9 10 15 21 31 42 52 57 60 65 70 71 71 71 63 57 51 53 62 58 60 61 55 48 48 41 39 39 38 41 39 38 40 30 32 34 42 43 50 46 46 47 48
10 6 4 7 18 26 32 44 57 60 61 65 71 76 70 74 67 62 50 52 62 62 60 52 52 48 45 40 39 42 44 50 50 51 49 45 41 32 37 36 33 32 33 37
8 7 3 4 12 22 30 42 50 55 67 63 63 70 72 71 70 71 73 60 59 62 59 48 44 44 49 50 47 46 46 45 49 56 53 49 49 48 39 35 41 43 44 40
10 12 4 5 9 18 29 36 45 52 55 69 60 61 67 70 83 83 73 63 58 58 51 46 43 44 44 35 31 32 31 33 40 40 42 44 41 43 49 48 40 44 50 52
13 9 1 2 8 17 22 25 33 45 54 61 75 76 66 60 68 82 85 80 70 64 62 54 49 45 40 35 32 24 24 26 28 32 35 38 39 38 42 45 55 40 34 32
11 12 6 10 15 18 19 26 25 36 44 52 55 72 75 74 69 64 70 81 86 81 74 71 67 58 51 44 36 30 27 27 32 35 37 44 44 38 31 30 32 34 40 39
9 13 9 9 8 15 18 25 29 28 33 42 48 55 64 70 73 75 76 74 74 76 82 84 82 79 76 70 59 47 38 34 34 36 34 35 36 35 41 29 28 27 29 30
Wind_Direction_850mb
219 192 171 254 245 203 192 188 163 206 175 210 212 201 188 229 277 325 139 183 199 217 230 230 232 230 236 235 232 232 234 232 239 241 239 239 236 241 249 249 246 247 246 248
251 98 181 258 332 298 342 143 24 149 216 146 213 225 218 290 320 309 45 54 18 262 237 243 242 241 237 238 234 232 233 234 238 241 242 239 238 239 249 254 246 248 244 246
235 59 87 24 10 80 72 46 66 132 241 146 152 113 104 88 72 48 41 46 35 22 4 272 258 253 247 244 245 234 233 235 239 242 245 243 239 241 246 255 256 248 247 245
182 71 74 276 62 86 72 39 28 22 41 108 135 133 93 54 47 47 35 30 28 19 355 305 293 267 249 248 246 245 236 231 237 240 241 242 242 241 246 253 255 253 251 249
134 126 142 330 12 40 93 37 22 27 35 100 98 68 46 40 38 35 25 23 23 6 10 7 347 288 237 243 245 248 244 237 236 238 240 240 239 242 244 255 251 259 252 251
97 118 146 251 287 272 89 46 6 48 31 31 66 64 323 33 30 23 16 14 15 15 6 3 325 293 268 252 245 249 256 245 237 239 242 239 241 248 253 261 255 250 251 243
94 101 63 313 312 17 72 181 80 61 54 50 55 58 44 35 32 22 11 11 9 10 8 352 1 293 274 259 258 266 264 261 249 244 243 242 250 252 252 254 248 247 240 233
82 73 351 325 358 84 139 82 83 70 55 47 38 33 33 28 15 7 3 4 11 7 358 355 333 279 256 273 293 285 272 267 259 250 243 240 246 245 241 244 246 239 233 229
82 127 309 75 96 90 82 72 61 68 51 47 33 21 13 11 12 7 1 356 355 354 352 352 347 346 310 271 278 293 287 274 270 260 255 251 250 244 237 242 241 235 234 234
80 33 53 57 75 74 64 62 59 55 41 33 19 8 2 360 358 5 359 355 350 349 344 342 352 354 348 330 294 283 293 279 275 268 261 258 257 249 243 243 240 235 236 233
96 59 65 44 52 59 59 55 50 41 28 24 12 4 357 350 350 347 338 335 336 338 335 326 341 353 352 344 329 301 277 284 281 274 267 265 258 250 247 249 249 247 244 239
110 64 88 56 50 50 48 35 27 21 11 11 3 358 351 346 338 333 334 328 325 323 321 320 325 342 357 354 346 347 338 291 280 279 299 337 286 262 260 261 266 269 267 258
82 75 70 61 45 25 21 10 357 351 351 346 333 333 329 328 322 317 314 315 318 322 320 320 316 320 331 339 338 347 350 354 344 322 301 300 23 355 287 7 318 269 263 264
57 67 46 40 42 25 21 9 355 342 339 339 335 330 329 324 317 312 311 311 306 307 311 315 311 314 318 323 332 336 342 348 351 342 333 330 263 313 292 335 326 309 288 283
73 72 69 59 42 31 17 3 353 347 341 338 331 328 323 319 316 314 311 310 309 304 301 301 309 307 309 314 315 326 342 338 337 346 351 272 230 236 233 260 264 281 270 268
79 67 60 52 37 20 11 0 357 348 342 338 330 326 326 323 318 318 316 312 311 308 306 300 296 301 313 306 311 304 314 336 321 330 347 330 224 201 216 224 233 240 238 247
74 70 61 47 32 22 17 14 10 359 352 350 346 342 341 339 338 339 337 337 329 317 307 304 300 298 294 309 310 307 308 309 301 304 322 323 277 234 244 225 227 226 243 252
105 97 77 45 34 29 26 26 21 13 3 352 345 340 335 335 335 332 332 329 327 327 325 309 310 306 298 289 293 308 317 301 305 280 288 299 302 301 250 248 248 252 248 242
91 71 37 30 25 24 24 23 20 16 9 3 354 346 335 329 327 328 326 323 328 333 340 333 323 318 311 289 301 279 293 308 299 293 302 294 288 287 285 277 273 262 260 262
101 66 22 23 15 20 21 19 16 19 18 13 5 358 350 341 333 324 324 319 317 324 331 331 324 318 315 311 294 308 291 285 300 284 277 290 294 285 281 282 286 283 274 263
94 50 23 15 20 21 22 22 20 22 23 25 19 8 2 354 352 347 345 340 330 321 316 314 319 323 324 326 318 304 298 292 290 285 287 285 285 286 295 279 281 281 283 282
96 23 357 355 18 19 23 21 22 20 17 18 20 15 4 7 2 357 350 340 339 338 329 332 328 318 306 300 293 292 291 288 287 284 284 288 282 290 286 295 288 294 305 292
50 23 298 357 18 22 24 19 18 20 23 20 21 18 14 8 7 358 353 350 346 342 338 332 333 334 317 298 292 291 286 292 292 283 282 282 280 280 281 280 286 286 289 294
50 31 47 359 346 2 14 11 20 22 22 26 25 22 20 12 18 18 8 1 360 355 349 343 329 327 336 339 321 306 302 298 305 304 296 292 288 280 277 271 280 282 288 291
56 33 2 272 348 14 5 6 20 23 28 25 28 27 24 24 23 23 22 17 14 11 9 2 352 345 347 343 343 335 324 314 297 297 294 288 291 286 278 282 267 282 286 285
53 39 55 39 34 35 13 20 6 10 18 24 21 24 25 26 27 26 25 28 29 27 26 25 20 11 4 357 346 338 330 319 308 304 291 278 278 288 291 263 276 274 277 280
59 50 46 40 42 27 13 3 348 342 359 17 17 19 21 23 26 29 33 32 30 28 29 31 35 35 33 27 16 3 352 332 316 319 308 304 304 295 277 268 260 267 268 276